Lid_Strength_Index
3 2 2 1 1 1 1 0 0 -0 -0 0 0 0 1 -0 -1 -1 -1 -1 -2 -1 -2 -1 -1 -2 -1 -1 -1 -1 -0 0 -0 0 -0 -1 -1 -1 -1 -1 -1 -1 -1
4 3 2 2 1 1 1 0 0 -0 -0 -0 -0 -1 -0 -1 -1 -1 -1 -1 -1 -1 -1 -2 -1 -1 -1 -1 -1 -0 0 0 -0 1 1 2 1 -0 -0 -1 -1 -1 -1
4 3 3 2 2 2 1 1 0 -0 -0 -1 -0 -0 -1 -1 0 -0 -0 -1 -1 -1 -1 -1 -2 -1 -1 -1 -0 -0 0 1 0 -0 1 3 4 2 -0 -0 -0 -1 -1
4 3 3 3 2 1 1 0 0 -0 -0 -1 -0 0 1 1 0 -0 -1 -1 -1 -1 -1 -1 -1 -1 -1 -1 -1 -1 -0 0 1 0 0 0 1 3 3 1 0 -0 -0
4 4 3 2 2 1 1 0 0 -0 -0 -0 -0 0 0 -0 -0 -0 -1 -1 -1 -1 -1 -1 -1 -1 -1 -1 -1 -1 -0 -0 1 1 1 0 1 1 2 3 2 -0 -0
4 3 2 2 2 1 1 1 1 0 -0 -0 -0 0 0 0 0 0 1 0 -0 -1 -1 -1 -1 -1 -1 -1 -1 -1 -1 -0 -0 0 0 1 1 2 2 3 2 2 1
4 4 3 3 2 2 1 1 1 1 0 0 0 0 0 0 0 0 0 0 0 -0 -0 -1 -1 -1 -1 -1 -1 -1 -1 -1 -0 -0 0 0 1 0 1 1 2 2 1
4 4 3 2 2 2 1 1 1 1 0 0 0 -0 -0 0 0 -0 0 0 0 -1 -1 -1 -1 -1 -1 -1 -1 -1 -1 -1 -1 -0 -0 -0 -0 -0 -0 1 2 2 2
4 4 3 2 2 2 2 1 1 1 0 0 -0 0 -0 -0 0 -0 -0 -0 -1 -1 -1 -1 -1 -1 -1 -1 -1 -1 -0 -1 -1 -1 -1 -1 -1 -1 -1 -1 -0 2 4
4 4 3 3 2 2 1 1 1 1 1 0 0 -0 -0 -0 -0 -0 -0 -0 -1 -1 -1 -1 -1 -1 -1 -1 -1 -1 -1 -0 -1 -1 -0 -1 -1 -1 -1 -1 -1 -0 2
5 4 3 2 2 2 1 1 1 1 1 0 -0 0 -0 -0 -0 -0 -0 -0 -1 -1 -1 -1 -1 -1 -0 -1 -1 -1 -1 -0 -0 -0 -0 -0 -1 -0 -0 -1 -1 0 1
4 4 3 3 2 2 2 2 1 1 1 0 0 0 -0 -0 0 -0 -0 -1 -0 -1 -1 -1 -1 -1 -1 -1 -0 -0 -0 0 0 0 -0 0 -0 -0 -1 -0 0 0 -0
4 4 4 3 3 3 2 2 1 1 1 0 0 0 0 0 0 -0 -0 -0 -0 -0 -1 -1 -0 -0 -0 -1 -1 -1 -0 -0 -0 -0 0 0 -0 0 -0 0 0 0 0
5 4 4 3 3 3 2 2 2 1 1 1 1 1 1 0 0 -0 -0 -0 -1 -0 -0 -1 -0 -1 -1 -1 -1 -1 -0 -0 -0 -1 -1 -0 -0 -0 -0 -0 -0 -0 -0
5 5 4 4 3 3 3 2 2 1 0 1 1 1 0 -0 -0 0 -0 -0 -0 -0 -1 -0 -1 -1 -1 -0 -0 -0 -0 -0 -0 -0 -1 -1 -0 1 0 -0 -0 -0 1
5 5 4 4 4 3 3 3 3 2 1 2 1 1 0 0 0 0 0 0 0 -0 -0 0 -0 0 -0 5 4 1 -0 -0 -0 -0 -0 -1 0 0 3 3 3 1 0
5 5 4 4 3 3 2 3 4 4 5 5 3 3 1 1 1 1 1 1 1 -0 0 -0 0 0 0 6 5 4 -0 -0 -0 -0 -0 -0 -0 0 -1 2 3 3 4
5 5 6 6 6 6 5 5 6 6 6 6 5 4 4 3 2 1 1 1 0 0 0 0 -0 -0 0 5 6 4 -1 -1 -0 -0 -0 -0 -0 -0 0 -0 -0 -0 -0
5 6 7 7 7 7 6 6 6 7 6 6 6 5 3 3 4 4 3 1 0 0 0 -0 0 0 -0 5 5 2 -0 -0 -0 -0 -0 -0 -0 7 7 0 1 0 0
6 6 7 7 7 8 7 7 7 7 8 7 7 6 6 5 6 5 5 3 2 2 1 0 -0 3 2 7 7 3 1 1 1 0 1 6 5 7 8 2 0 1 1
6 6 7 8 8 8 8 9 9 9 9 7 7 8 7 6 6 6 5 4 3 3 3 2 2 1 3 5 8 8 2 3 3 3 2 1 7 9 9 8 2 3 4
6 6 8 9 8 8 8 8 9 8 8 7 7 7 8 8 7 6 6 5 4 5 5 5 4 5 4 8 9 9 9 7 3 3 3 3 9 10 9 6 6 7 6
6 6 7 7 8 7 7 8 7 7 7 7 7 7 6 6 7 7 7 7 5 6 5 5 4 3 3 2 5 6 7 8 5 4 6 8 9 8 6 7 6 5 0
5 5 6 7 7 6 6 6 6 6 6 7 7 7 7 7 7 7 7 7 7 6 5 5 4 3 3 4 4 3 2 3 5 7 5 6 7 8 6 4 3 1 1
5 5 6 6 6 6 6 6 6 5 6 6 6 7 7 7 7 7 7 7 7 7 5 5 4 4 4 6 8 8 5 5 5 5 1 2 4 5 4 2 2 2 2
6 5 5 6 6 6 6 6 6 6 7 7 8 7 7 8 7 7 7 9 9 10 11 11 9 6 9 10 11 12 11 11 10 3 3 2 2 2 2 3 3 2 1